• In United Kingdom
  • List of Countries
  • For 7 days
  • Water Temperature
  • Satellite Maps
  • Weather Map
  • Weather Widgets
  • user-avatar
    Login

    Hourly Weather Berat

    Today, 17 January, Wednesday

    Time Temperature Precipitation Wind Pressure Humidity
    00:00 +9°C° 0.1 mm 3 mps 742 mmHg 92%
    01:00 +8°C° 0.1 mm 4 mps 742 mmHg 92%
    02:00 +8°C° 0 mm 4 mps 742 mmHg 92%
    03:00 +8°C° 0 mm 4 mps 741 mmHg 91%
    04:00 +8°C° 0 mm 4 mps 741 mmHg 91%
    05:00 +8°C° 0.1 mm 4 mps 740 mmHg 90%
    06:00 +8°C° 0.1 mm 5 mps 739 mmHg 90%
    07:00 +8°C° 0.1 mm 5 mps 739 mmHg 90%
    08:00 +9°C° 0.2 mm 6 mps 738 mmHg 89%
    09:00 +9°C° 0.2 mm 6 mps 738 mmHg 89%
    10:00 +9°C° 0.2 mm 6 mps 738 mmHg 88%
    11:00 +10°C° 0.6 mm 7 mps 736 mmHg 88%
    12:00 +11°C° 0.6 mm 8 mps 735 mmHg 87%
    13:00 +11°C° 0.6 mm 9 mps 734 mmHg 86%
    14:00 +11°C° 1.4 mm 9 mps 734 mmHg 86%
    15:00 +11°C° 1.4 mm 10 mps 733 mmHg 85%
    16:00 +11°C° 1.4 mm 10 mps 733 mmHg 85%
    17:00 +9°C° 1.4 mm 10 mps 733 mmHg 86%
    18:00 +8°C° 1.4 mm 10 mps 733 mmHg 87%
    19:00 +8°C° 1.4 mm 10 mps 733 mmHg 87%
    20:00 +7°C° 0.8 mm 10 mps 733 mmHg 82%
    21:00 +7°C° 0.8 mm 11 mps 734 mmHg 77%
    22:00 +6°C° 0.8 mm 11 mps 735 mmHg 72%
    23:00 +5°C° 0.2 mm 10 mps 736 mmHg 74%

    Tomorrow, 18 January, Thursday

    Time Temperature Precipitation Wind Pressure Humidity
    00:00 +5°C° 0.2 mm 8 mps 737 mmHg 76%
    01:00 +4°C° 0.2 mm 7 mps 738 mmHg 78%
    02:00 +3°C° 0.1 mm 7 mps 739 mmHg 78%
    03:00 +3°C° 0.1 mm 7 mps 739 mmHg 77%
    04:00 +2°C° 0.1 mm 7 mps 740 mmHg 76%
    05:00 +1°C° 0 mm 6 mps 741 mmHg 74%
    06:00 +1°C° 0 mm 6 mps 742 mmHg 72%
    07:00 0°C° 0 mm 5 mps 743 mmHg 70%
    08:00 +2°C° 0 mm 6 mps 744 mmHg 62%
    09:00 +3°C° 0 mm 7 mps 745 mmHg 54%
    10:00 +4°C° 0 mm 8 mps 746 mmHg 45%
    11:00 +5°C° 0 mm 8 mps 746 mmHg 44%
    12:00 +5°C° 0 mm 8 mps 746 mmHg 44%
    13:00 +6°C° 0 mm 7 mps 746 mmHg 43%
    14:00 +5°C° 0 mm 6 mps 747 mmHg 48%
    15:00 +6°C° 0 mm 5 mps 747 mmHg 52%
    16:00 +5°C° 0 mm 3 mps 747 mmHg 57%
    17:00 +5°C° 0 mm 3 mps 747 mmHg 58%
    18:00 +5°C° 0 mm 2 mps 747 mmHg 59%
    19:00 +4°C° 0 mm 2 mps 748 mmHg 59%
    20:00 +4°C° 0 mm 2 mps 748 mmHg 59%
    21:00 +4°C° 0 mm 2 mps 748 mmHg 59%
    22:00 +4°C° 0 mm 2 mps 748 mmHg 59%
    23:00 +4°C° 0 mm 2 mps 748 mmHg 61%

    Day after tomorrow, 19 January, Friday

    Time Temperature Precipitation Wind Pressure Humidity
    00:00 +3°C° 0 mm 3 mps 748 mmHg 63%
    01:00 +3°C° 0 mm 3 mps 747 mmHg 65%
    02:00 +3°C° 0 mm 3 mps 747 mmHg 66%
    03:00 +3°C° 0 mm 4 mps 747 mmHg 68%
    04:00 +3°C° 0 mm 4 mps 746 mmHg 70%
    05:00 +3°C° 0 mm 4 mps 746 mmHg 71%
    06:00 +3°C° 0 mm 4 mps 746 mmHg 71%
    07:00 +3°C° 0 mm 4 mps 746 mmHg 72%
    08:00 +5°C° 0 mm 4 mps 746 mmHg 72%
    09:00 +6°C° 0 mm 4 mps 746 mmHg 72%
    10:00 +8°C° 0 mm 4 mps 746 mmHg 72%
    11:00 +8°C° 0 mm 4 mps 745 mmHg 72%
    12:00 +10°C° 0 mm 4 mps 745 mmHg 72%
    13:00 +11°C° 0 mm 4 mps 744 mmHg 72%
    14:00 +11°C° 0 mm 4 mps 744 mmHg 76%
    15:00 +10°C° 0 mm 4 mps 744 mmHg 80%
    16:00 +10°C° 0 mm 4 mps 744 mmHg 84%
    17:00 +8°C° 0 mm 4 mps 744 mmHg 86%
    18:00 +7°C° 0 mm 4 mps 744 mmHg 88%
    19:00 +7°C° 0 mm 4 mps 744 mmHg 90%
    20:00 +6°C° 0 mm 4 mps 744 mmHg 90%
    21:00 +6°C° 0 mm 4 mps 743 mmHg 90%
    22:00 +6°C° 0 mm 4 mps 743 mmHg 90%
    23:00 +7°C° 0 mm 4 mps 743 mmHg 90%

    20 January, Saturday

    Time Temperature Precipitation Wind Pressure Humidity
    00:00 +7°C° 0 mm 4 mps 743 mmHg 91%
    01:00 +7°C° 0 mm 4 mps 743 mmHg 91%
    02:00 +7°C° 0.1 mm 4 mps 742 mmHg 91%
    03:00 +7°C° 0.1 mm 4 mps 742 mmHg 91%
    04:00 +7°C° 0.1 mm 5 mps 741 mmHg 91%
    05:00 +7°C° 0.1 mm 5 mps 741 mmHg 91%
    06:00 +7°C° 0.1 mm 5 mps 741 mmHg 91%
    07:00 +7°C° 0.1 mm 5 mps 741 mmHg 91%
    08:00 +8°C° 0.5 mm 5 mps 740 mmHg 90%
    09:00 +9°C° 0.5 mm 5 mps 740 mmHg 89%
    10:00 +10°C° 0.5 mm 5 mps 740 mmHg 89%
    11:00 +10°C° 0.9 mm 5 mps 739 mmHg 89%
    12:00 +10°C° 0.9 mm 5 mps 739 mmHg 88%
    13:00 +10°C° 0.9 mm 5 mps 738 mmHg 88%
    14:00 +10°C° 1 mm 5 mps 738 mmHg 88%
    15:00 +9°C° 1 mm 5 mps 737 mmHg 88%
    16:00 +9°C° 1 mm 5 mps 737 mmHg 87%
    17:00 +9°C° 0.8 mm 6 mps 737 mmHg 87%
    18:00 +8°C° 0.8 mm 6 mps 737 mmHg 86%
    19:00 +8°C° 0.8 mm 7 mps 738 mmHg 86%
    20:00 +7°C° 0.5 mm 6 mps 738 mmHg 86%
    21:00 +7°C° 0.5 mm 5 mps 738 mmHg 86%
    22:00 +6°C° 0.5 mm 5 mps 739 mmHg 87%
    23:00 +6°C° 0.2 mm 4 mps 739 mmHg 87%

    21 January, Sunday

    Time Temperature Precipitation Wind Pressure Humidity
    00:00 +5°C° 0.2 mm 4 mps 739 mmHg 88%
    01:00 +5°C° 0.2 mm 3 mps 740 mmHg 89%
    02:00 +5°C° 0.1 mm 3 mps 740 mmHg 88%
    03:00 +6°C° 0.1 mm 2 mps 740 mmHg 88%
    04:00 +5°C° 0.1 mm 2 mps 740 mmHg 87%
    05:00 +5°C° 0 mm 2 mps 739 mmHg 87%
    06:00 +5°C° 0 mm 2 mps 739 mmHg 87%
    07:00 +6°C° 0 mm 1 mps 739 mmHg 87%
    08:00 +6°C° 0 mm 2 mps 739 mmHg 81%
    09:00 +7°C° 0 mm 2 mps 739 mmHg 76%
    10:00 +8°C° 0 mm 3 mps 739 mmHg 70%
    11:00 +8°C° 0 mm 3 mps 738 mmHg 68%
    12:00 +9°C° 0 mm 3 mps 738 mmHg 65%
    13:00 +9°C° 0 mm 3 mps 738 mmHg 62%
    14:00 +8°C° 0.2 mm 3 mps 738 mmHg 66%
    15:00 +6°C° 0.2 mm 4 mps 738 mmHg 71%
    16:00 +6°C° 0.2 mm 4 mps 738 mmHg 75%
    17:00 +5°C° 0.1 mm 5 mps 739 mmHg 76%
    18:00 +3°C° 0.1 mm 5 mps 739 mmHg 76%
    19:00 +3°C° 0.1 mm 5 mps 740 mmHg 76%
    20:00 +2°C° 0 mm 5 mps 740 mmHg 75%
    21:00 +2°C° 0 mm 5 mps 741 mmHg 74%
    22:00 +1°C° 0 mm 5 mps 741 mmHg 74%
    23:00 +1°C° 0 mm 4 mps 741 mmHg 74%

    22 January, Monday

    Time Temperature Precipitation Wind Pressure Humidity
    00:00 0°C° 0 mm 4 mps 742 mmHg 74%
    01:00 0°C° 0 mm 4 mps 742 mmHg 74%
    02:00 0°C° 0 mm 4 mps 742 mmHg 74%
    03:00 -1°C° 0 mm 4 mps 743 mmHg 74%
    04:00 -1°C° 0 mm 4 mps 743 mmHg 73%
    05:00 -1°C° 0 mm 4 mps 743 mmHg 73%
    06:00 -1°C° 0 mm 4 mps 744 mmHg 72%
    07:00 0°C° 0 mm 3 mps 745 mmHg 72%
    08:00 +1°C° 0 mm 3 mps 745 mmHg 65%
    09:00 +2°C° 0 mm 3 mps 746 mmHg 58%
    10:00 +3°C° 0 mm 3 mps 746 mmHg 51%
    11:00 +4°C° 0 mm 3 mps 746 mmHg 48%
    12:00 +5°C° 0 mm 3 mps 746 mmHg 46%
    13:00 +5°C° 0 mm 3 mps 746 mmHg 43%
    14:00 +5°C° 0 mm 3 mps 746 mmHg 47%
    15:00 +6°C° 0 mm 2 mps 746 mmHg 51%
    16:00 +5°C° 0 mm 2 mps 746 mmHg 55%
    17:00 +4°C° 0 mm 2 mps 746 mmHg 56%
    18:00 +3°C° 0 mm 2 mps 747 mmHg 58%
    19:00 +3°C° 0 mm 2 mps 747 mmHg 60%
    20:00 +2°C° 0 mm 2 mps 747 mmHg 60%
    21:00 +2°C° 0 mm 2 mps 747 mmHg 60%
    22:00 +2°C° 0 mm 2 mps 748 mmHg 60%
    23:00 +2°C° 0 mm 2 mps 748 mmHg 59%
    Show more